This is the latest recevied weather packets stored in our database for station/object K5DLF-13. If no packets are shown the sender has not sent any weather packets the latest 10 day(s).
| Time | Temp. | Humidity | Pressure | Rain* | Wind** | Luminosity | Snow |
|---|---|---|---|---|---|---|---|
| 1777745405 | 23.89° C | 49% | 1017.4 hPa | 0 mm | - | 946 W/m² | - |
| 1777745105 | 23.89° C | 52% | 1017.3 hPa | 0 mm | - | 942 W/m² | - |
| 1777744804 | 23.89° C | 55% | 1017.4 hPa | 0 mm | - | 942 W/m² | - |
| 1777744505 | 23.89° C | 49% | 1017.5 hPa | 0 mm | - | 939 W/m² | - |
| 1777744205 | 23.33° C | 52% | 1017.4 hPa | 0 mm | - | 939 W/m² | - |
| 1777743905 | 23.33° C | 52% | 1017.5 hPa | 0 mm | - | 933 W/m² | - |
| 1777743605 | 23.33° C | 50% | 1017.4 hPa | 0 mm | - | 933 W/m² | - |
| 1777743305 | 23.33° C | 52% | 1017.5 hPa | 0 mm | - | 925 W/m² | - |
| 1777743005 | 23.33° C | 53% | 1017.6 hPa | 0 mm | - | 921 W/m² | - |
| 1777742705 | 22.78° C | 54% | 1017.5 hPa | 0 mm | - | 916 W/m² | - |
| 1777742405 | 22.78° C | 52% | 1017.5 hPa | 0 mm | - | 912 W/m² | - |
| 1777742105 | 22.78° C | 55% | 1017.4 hPa | 0 mm | - | 905 W/m² | - |
| 1777741805 | 22.78° C | 53% | 1017.6 hPa | 0 mm | - | 902 W/m² | - |
| 1777741505 | 22.78° C | 57% | 1017.5 hPa | 0 mm | - | 893 W/m² | - |
| 1777741205 | 22.78° C | 57% | 1017.4 hPa | 0 mm | - | 882 W/m² | - |
| 1777740905 | 22.22° C | 58% | 1017.3 hPa | 0 mm | - | 872 W/m² | - |
| 1777740605 | 22.22° C | 60% | 1017.4 hPa | 0 mm | - | 865 W/m² | - |
| 1777740305 | 22.22° C | 62% | 1017.4 hPa | 0 mm | - | 853 W/m² | - |
| 1777740005 | 22.22° C | 60% | 1017.5 hPa | 0 mm | - | 851 W/m² | - |
| 1777739705 | 21.67° C | 62% | 1017.4 hPa | 0.25 mm | - | 793 W/m² | - |
| 1777739405 | 21.67° C | 61% | 1017.4 hPa | 0.25 mm | - | 831 W/m² | - |
| 1777739105 | 21.67° C | 64% | 1017.4 hPa | 0.25 mm | - | 821 W/m² | - |
| 1777738805 | 21.67° C | 65% | 1017.3 hPa | 0.25 mm | - | 809 W/m² | - |
| 1777738505 | 21.11° C | 63% | 1017.1 hPa | 0.25 mm | - | 803 W/m² | - |
| 1777738205 | 21.11° C | 66% | 1017.2 hPa | 0.25 mm | - | 788 W/m² | - |
* Rain latest hour (hover to see other rain measurements)
** Current wind speed in m/s (hover to see current wind gust speed)